#timestamp,LO_Frequency,Hit,StdDev 
1673096415.5,286047002.0,N
1673096435.4,286047004.3,Y
1673096455.2,286046998.2,P
1673096475.1,286046998.5,N
1673096476.0,286046998.5,N
1673096495.8,286046999.1,N
1673096515.6,286046997.0,N
1673096535.5,286046997.1,N
1673096555.3,286046999.4,N
1673096575.2,286046999.5,N
1673096595.9,286046996.7,N
1673096615.7,286046999.2,N
1673096635.6,286046997.7,N
1673096655.4,286046996.0,N
1673096675.3,286046995.0,Y
1673096695.1,286046996.7,P
1673096696.0,286046996.7,P
1673096715.8,286046997.9,N
1673096735.7,286046997.6,Y
1673096755.5,286046999.4,P
1673096775.3,286046996.9,P
1673096795.2,286046998.6,N
1673096815.0,286047001.0,N
1673096815.9,286047001.0,N
1673096835.8,286047000.5,N
1673096855.6,286047000.7,N
1673096875.4,286047000.6,N
1673096895.3,286046999.4,N
1673096915.1,286046999.0,N
1673096935.9,286046996.5,N
1673096955.7,286046996.6,N
1673096975.5,286046998.8,N
1673096995.4,286047000.8,N
1673097015.2,286046998.1,N
1673097035.0,286047000.7,N
1673097035.9,286047000.7,N
1673097055.8,286047000.7,N
1673097075.6,286047000.6,N
1673097095.5,286047000.1,N
1673097115.3,286047002.8,N
1673097135.1,286047001.0,N
1673097155.9,286046999.0,N
1673097175.7,286046999.3,N
1673097195.5,286046999.6,N
1673097215.4,286046996.5,N
1673097235.2,286046996.6,N
1673097255.1,286046999.6,N
1673097256.0,286046999.6,N
1673097275.8,286046999.1,N
1673097295.6,286046998.4,N
1673097315.5,286046999.0,N
1673097335.3,286046998.7,N
1673097355.2,286046998.9,N
1673097375.9,286046998.5,N
1673097395.7,286046998.4,N
1673097415.6,286047001.1,N
1673097435.4,286047000.6,N
1673097455.2,286046998.4,N
1673097475.1,286047000.9,N
1673097476.0,286047000.9,N
1673097495.8,286047001.2,N
1673097515.7,286047000.0,N
1673097535.5,286046999.9,N
1673097555.3,286047000.9,N
1673097575.2,286047000.8,N
1673097595.0,286047000.7,N
1673097595.9,286047000.7,N
1673097615.8,286047000.3,N
1673097635.6,286047000.0,N
1673097655.4,286047000.8,N
1673097675.3,286047001.0,N
1673097695.1,286046998.7,N
1673097715.8,286046998.1,N
1673097735.7,286046998.9,N
1673097755.5,286047001.2,N
1673097775.4,286047000.9,N
1673097795.2,286047001.2,N
1673097815.0,286046999.0,N
1673097815.9,286046999.0,N
1673097835.8,286046998.4,N
1673097855.6,286046998.8,N
1673097875.4,286046998.9,N
1673097895.3,286046998.6,N
1673097915.1,286047000.0,N
1673097935.9,286047000.4,N
1673097955.7,286047001.1,N
1673098005.6,286046998.4,E
1673098015.5,286046999.9,N
1673098035.3,286047001.6,P
1673098055.2,286047001.6,N
1673098075.9,286046999.8,N
1673098095.7,286047002.3,N
1673098115.6,286047002.6,N
1673098135.4,286046999.8,N
1673098155.2,286047002.7,N
1673098175.1,286047001.9,N
1673098176.0,286047001.9,N
1673098195.8,286047002.4,N
1673098215.7,286046999.7,N
1673098235.5,286047002.7,N
1673098255.3,286047002.8,N
1673098275.2,286047002.7,N
1673098295.0,286047002.7,N
1673098295.9,286047002.7,N
1673098315.7,286047000.2,N
1673098335.6,286047000.5,N
1673098355.4,286047001.0,N
1673098375.3,286047001.0,N
1673098395.1,286046998.1,N
1673098396.0,286046998.1,N
1673098415.8,286047000.4,N
1673098435.7,286046999.8,N
1673098455.5,286047002.1,N
1673098475.3,286047000.1,N
1673098495.2,286046999.9,N
1673098515.0,286047002.1,N
1673098515.9,286047002.1,N
1673098535.8,286047003.5,N
1673098555.6,286047005.5,Y
1673098575.4,286046999.7,P
1673098595.3,286047000.2,N
1673098615.1,286047002.8,P
1673098635.9,286046999.8,N
1673098655.7,286046998.8,N
1673098675.5,286046998.7,N
1673098695.4,286046999.3,N
1673098715.2,286046999.4,N
1673098735.0,286046998.9,N
1673098735.9,286046998.9,N
1673098755.8,286046998.7,N
1673098775.6,286046999.4,N
1673098795.5,286046998.9,N
1673098815.3,286046999.5,N
1673098835.1,286046998.8,N
1673098855.9,286046999.3,N
1673098875.7,286046998.7,N
1673098895.5,286046998.4,N
1673098915.4,286046999.0,N
1673098935.2,286046999.0,N
1673098955.1,286047001.2,N
1673098956.0,286047001.2,N
1673098975.8,286046999.0,N
1673098995.6,286046998.6,N
1673099015.5,286046999.4,N
1673099035.3,286046996.6,Y
1673099055.1,286046996.8,P
1673099075.9,286046997.6,N
1673099095.7,286046997.2,N
1673099115.6,286046997.2,N
1673099135.4,286046996.5,Y
1673099155.2,286047001.0,P
1673099175.1,286047001.0,N
1673099176.0,286047001.0,N
1673099195.8,286047000.2,N
1673099215.7,286047000.7,N
1673099235.5,286047000.4,N
1673099255.3,286047000.3,N
1673099275.2,286047001.0,N
1673099295.9,286047000.5,N
1673099315.7,286047002.7,N
1673099335.6,286047002.8,N
1673099355.4,286047002.1,N
1673099375.2,286047001.4,N
1673099395.1,286046999.7,N
1673099396.0,286046999.7,N
1673099415.8,286047002.7,N
1673099435.7,286047001.6,N
1673099455.5,286047004.4,Y
1673099475.3,286046999.8,P
1673099495.2,286047002.3,P
1673099515.0,286047002.1,N
1673099515.9,286047002.1,N
1673099535.8,286047002.3,N
1673099555.6,286047001.5,N
1673099575.4,286046999.8,N
1673099595.3,286047000.1,N
1673099615.1,286047000.3,N
1673099635.8,286047000.8,N
1673099655.7,286047000.7,N
1673099675.5,286047000.9,N
1673099695.3,286047001.2,N
1673099715.2,286046998.2,N
1673099735.0,286046998.1,N
1673099735.9,286046998.1,N
1673099755.8,286046999.0,N
1673099775.6,286046998.7,N
1673099795.4,286046999.3,N
1673099815.3,286046996.8,N
1673099835.1,286046997.1,N
1673099855.9,286046998.9,N
1673099875.7,286046998.4,N
1673099895.5,286046999.3,N
1673099915.4,286046998.8,N
1673099935.2,286046999.4,N
1673099955.0,286046996.5,N
1673099956.0,286046996.5,N
1673099975.8,286046999.6,N
1673099995.6,286046998.7,N
